Regional Weather Roundup
Issued by NWS

Home | Current Version | Previous Version | Text Only | Print | Product List | Glossary Off
Versions: 1 2 3 4 5 6 7 8 9 10 11 12 13 14 15 16 17 18 19 20 21 22 23 24 25 26 27 28 29 30 31 32 33 34 35 36 37 38 39 40 41 42 43 44 45 46 47 48 49 50

555
ASUS44 KLIX 301811
RWRLA
LOUISIANA WEATHER ROUNDUP
NATIONAL WEATHER SERVICE NEW ORLEANS LA
100 PM CDT MON MAR 30 2015

NOTE: "FAIR" INDICATES FEW OR NO CLOUDS BELOW 12,000 FEET WITH NO
      SIGNIFICANT WEATHER AND/OR OBSTRUCTIONS TO VISIBILITY.
      SKY/WX - SKY CONDITION AND SIGNIFICANT WEATHER.
      TMP - AIR TEMPERATURE.    DP   - DEWPOINT TEMPERATURE.
      RH  - RELATIVE HUMIDITY.  PRES - PRESSURE.
      HX  - HEAT INDEX.         WCI  - WIND CHILL INDEX.

*  THESE STATIONS ARE NOT NWS OR FAA STATIONS AND ARE NOT UNDER
   NWS QUALITY CONTROL.

LAZ040-048-061>063-065-066-069-301900-
SOUTHEAST LOUISIANA

CITY           SKY/WX    TMP DP  RH WIND       PRES   REMARKS
N.O. AUDUBON   NOT AVBL
N.O. INTL ARPT PTSUNNY   78  61  55 W10       30.22F
6HR MIN TEMP:  62; 6HR MAX TEMP:  80; 6HR PCP: TRACE;

N.O. LAKEFRONT MOSUNNY   77  65  66 N7        30.23F
6HR MIN TEMP:  66; 6HR MAX TEMP:  78;

SLIDELL        MOSUNNY   79  63  57 W9        30.22F
6HR MIN TEMP:  56; 6HR MAX TEMP:  79;

BATON ROUGE    PTSUNNY   81  59  47 SW13      30.22F
6HR MIN TEMP:  58; 6HR MAX TEMP:  80;

BOOTHVILLE     SUNNY     77  64  64 SW9       30.26F
6HR MIN TEMP:  61; 6HR MAX TEMP:  77;

BELLE CHASSE   MOSUNNY   79  60  52 SW9       30.22F
6HR MIN TEMP:  56; 6HR MAX TEMP:  79;

BOGALUSA*        N/A     80  59  48 NW9       30.23F
6HR MIN TEMP:  57; 6HR MAX TEMP:  81;

GALLIANO*      CLOUDY    80  63  55 MISG      30.24F
6HR MIN TEMP:  55; 6HR MAX TEMP:  81;

NEW ROADS*     MOCLDY    77  60  54 SW8       30.22F
6HR MIN TEMP:  58; 6HR MAX TEMP:  78;

GONZALES*      FAIR      79  63  57 W10       30.22F
6HR MIN TEMP:  58; 6HR MAX TEMP:  79;

HAMMOND*       PTSUNNY   81  57  44 NW3       30.23F
HOUMA*         PTSUNNY   81  63  54 W14       30.23F
PORT FOURCHON* CLEAR     77  63  61 W10       30.28F

$$

LAZ041-044-053-054-301900-
SOUTHWEST LOUISIANA

CITY           SKY/WX    TMP DP  RH WIND       PRES   REMARKS
LAKE CHARLES   MOSUNNY   79  60  52 W9        30.22F
6HR MIN TEMP:  58; 6HR MAX TEMP:  79;

LAFAYETTE      MOSUNNY   80  62  54 W9G20     30.22F
6HR MIN TEMP:  61; 6HR MAX TEMP:  80;

PATTERSON      PTSUNNY   79  61  53 SW10G16   30.24F
6HR MIN TEMP:  59; 6HR MAX TEMP:  79;

SALT POINT       N/A     74  68  81 VRB5      30.23F
6HR MIN TEMP:  64; 6HR MAX TEMP:  75;

NEW IBERIA     MOSUNNY   80  63  55 SW13G20   30.23F
6HR MIN TEMP:  59; 6HR MAX TEMP:  80;

CHENAULT AIRPK NOT AVBL

$$

LAZ027-028-301900-
CENTRAL LOUISIANA

CITY           SKY/WX    TMP DP  RH WIND       PRES   REMARKS
FORT POLK      PTSUNNY   76  58  53 W8        30.20F
6HR MIN TEMP:  58; 6HR MAX TEMP:  78;

ALEXANDRIA INT MOSUNNY   77  58  51 SW5       30.19F
6HR MIN TEMP:  54; 6HR MAX TEMP:  78;

ALEXANDRIA     MOSUNNY   80  57  45 W12       30.20F
6HR MIN TEMP:  53; 6HR MAX TEMP:  80;


$$

LAZ001-002-301900-
NORTHWEST LOUISIANA

CITY           SKY/WX    TMP DP  RH WIND       PRES   REMARKS
SHREVEPORT     CLOUDY    72  63  73 S8        30.19F
6HR MIN TEMP:  63; 6HR MAX TEMP:  72;

BARKSDALE AFB  CLOUDY    72  61  70 S5        30.19F
6HR MIN TEMP:  62; 6HR MAX TEMP:  72;

DTN SHREVEPORT CLOUDY    71  61  70 S5        30.19F
6HR MIN TEMP:  64; 6HR MAX TEMP:  71;


$$

LAZ014-016-301900-
NORTHEAST LOUISIANA

CITY           SKY/WX    TMP DP  RH WIND       PRES   REMARKS
MONROE         CLOUDY    70  65  84 CALM      30.22F
6HR MIN TEMP:  64; 6HR MAX TEMP:  70; 6HR PCP:  0.01;

TALLULAH       CLOUDY    73  62  68 VRB3      30.21F
6HR MIN TEMP:  63; 6HR MAX TEMP:  74; 6HR PCP:  0.01;


$$




USA.gov is the U.S. government's official web portal to all federal, state and local government web resources and services.